sat.trackr.live / text

‹ back to catalog

STARLINK-4574

NORAD 53733 · 2022-107AK

PAYLOAD ACTIVE UNKNOWN

§ Identity

Operator
Country
US
Launch date
2022-09-05
Launch site
AFETR
Launch vehicle
Mass (kg)
RCS (m²)

Purposes: comms

External: N2YO · Heavens-Above · Gunter

§ Orbital elements

Epoch: 2026-05-25T02:04:16.281120Z

Period
95.44 min
Inclination
53.2136°
Eccentricity
0.0001042
Mean motion
15.08847993 rev/d
Perigee alt
539.0 km
Apogee alt
540.4 km
Semi-major
6,917.9 km
B*
-1.7661e-5
RAAN
271.3928°
Arg perigee
78.6985°
Mean anomaly
281.4124°
Rev number
20,611

§ Raw data

STARLINK-45741 53733U 22107AK  26145.08629955 -.00000569  00000+0 -17661-4 0  99912 53733  53.2136 271.3928 0001042  78.6985 281.4124 15.08847993206111

JSON: /api/v1/satellites/53733 · /tle

For live sub-satellite position, see the globe view (requires WebGL).

§ Visibility from observer

Set your observer location to see the next 7 days of passes ≥ 10°. The values pass through the URL so the page stays shareable.

No JS? Fill the form by hand. The geolocation button needs JavaScript.